Notices

What's New in latest Release from April 7th, 2021:

- Updated Glossary, including Speed of Maximum Gust, and Total Hourly Precipitation

- Updated national and regional climate services offices contacts and prices information

- Addition of station inventory lists for 1981-2010, 1971-2000, and 1961-1990 Normals.

If you haven't already, please take our survey and provide feedback about our website: https://eccc.sondage-survey.ca/f/LanguageSelection.aspx?s=442ca660-fcf1-47c0-95a9-59707d6fd709

Hourly Data Report for November 03, 2019

MIRAMICHI RCS
NEW BRUNSWICK
Current Station Operator: ECCC - MSC

47°00'34.000" N
65°27'54.000" W
33.00 m
8100989
71744
ACQ

Download Data

Hourly Data (November 2019)
Hourly Data Report for November 3, 2019
TIME
LST
Temp Definition
°C
Dew Point Definition
°C
Rel Hum Definition
%
Precip. Amount Definition
mm

Wind Dir Definition
10's deg

Wind Spd Definition
km/h
Visibility Definition
km
Stn Press Definition
kPa
Hmdx Definition


Wind Chill Definition


Weather Definition


00:00 -0.5 -3.2 82 0.0 13 5   101.45   -2 LegendNANA
01:00 -1.6 -3.4 87 0.0   0   101.34     LegendNANA
02:00 -1.6 -2.8 91 0.0 0 1   101.29   -2 LegendNANA
03:00 -0.6 -1.2 96 0.0 33 1   101.18   -1 LegendNANA
04:00 0.5 -1.0 90 0.0 26 4   101.05     LegendNANA
05:00 0.8 -0.8 89 0.0 29 1   100.92     LegendNANA
06:00 -0.7 -1.7 93 0.0 14 5   100.85   -2 LegendNANA
07:00 -1.4 -2.3 93 0.0 26 4   100.80   -3 LegendNANA
08:00 -1.2 -2.1 94 0.0 25 7   100.87   -4 LegendNANA
09:00 0.0 -1.1 92 0.0 24 4   100.73   -1 LegendNANA
10:00 1.5 -0.8 84 0.0 25 11   100.68     LegendNANA
11:00 3.9 -0.1 76 0.0 24 11   100.69     LegendNANA
12:00 6.4 -0.2 62 0.0 24 17   100.58     LegendNANA
13:00 7.8 -1.7 51 0.0 23 20   100.56     LegendNANA
14:00 8.7 -1.9 47 0.0 24 17   100.52     LegendNANA
15:00 8.8 -2.6 44 0.0 28 16   100.54     LegendNANA
16:00 8.6 -3.1 44 0.0 26 20   100.62     LegendNANA
17:00 7.2 -2.4 50 0.0 26 12   100.74     LegendNANA
18:00 5.8 -2.0 57 0.0 28 10   100.83     LegendNANA
19:00 4.0 -1.7 66 0.0 27 9   100.93     LegendNANA
20:00 4.4 -2.1 63 0.0 27 11   101.00     LegendNANA
21:00 2.5 -2.1 72 0.0 24 6   101.05     LegendNANA
22:00 1.2 -2.2 78 0.0 23 9   101.10     LegendNANA
23:00 1.1 -2.4 78 0.0 23 6   101.13     LegendNANA

Notes on Data Quality.

Legend

  • E = Estimated
  • M = Missing
  • NA = Not Available*
  • [empty] = Indicates an unobserved value
Date modified: